Other Surface Observations
Issued by NWS

Home | Current Version | Previous Version | Text Only | Print | Product List | Glossary On
Versions: 1 2 3 4 5 6 7 8 9 10 11 12 13 14 15 16 17 18 19 20 21 22 23 24 25 26 27 28 29 30 31 32 33 34 35 36 37 38 39 40 41 42 43 44 45 46 47 48 49 50
603
SXUS52 KTAE 272118
OSOTAE
OSOTAE
North Florida/South Alabama/Southwest Georgia Weather Roundup
National Weather Service Tallahassee Florida
500 PM EDT TUE JUN 27 2017

Note: "fair" indicates few or no clouds below 12,000 feet with no
significant weather and/or obstructions to visibility.

!FLZ017-115-028-034-025-272200
...North Florida...

CITY           SKY/WX    TMP DP  RH WIND       PRES   REMARKS
TALLAHASSEE    CLOUDY    76  71  85 CALM      29.98R
APALACHICOLA   PTSUNNY   87  75  67 W12       29.96F HX  96
PERRY          LGT RAIN  74  73  93 CALM      29.99F
CROSS CITY     TSTM      77  75  94 SE13G18   29.99R
JACKSONVILLE   CLOUDY    78  75  90 E7        29.98S
$$

!FLZ112-006-005-002-011-272200
...Florida Panhandle...

CITY           SKY/WX    TMP DP  RH WIND       PRES   REMARKS
MARIANNA       CLOUDY    85  72  65 NE9       29.98S HX  91
BONIFAY        NOT AVBL
PANAMA CITY NW FAIR      83  70  64 NW12      29.98F
TYNDALL AFB    NOT AVBL
TYND DRONE APT   N/A    N/A N/A N/A NW6         N/A
DE FUNIAK SPR  FAIR      81  66  60 N8        30.02S
EGLIN AFB      NOT AVBL
DESTIN         LGT RAIN  85  79  82 NE7       30.00S HX  98
HURLBURT       NOT AVBL
CRESTVIEW      CLOUDY    82  68  62 NE5       30.02F
PENSACOLA      CLOUDY    86  69  56 N9        29.99F HX  90
$$

!ALZ063-066-272200
...South Alabama...

CITY           SKY/WX    TMP DP  RH WIND       PRES   REMARKS
DOTHAN         CLOUDY    82  68  62 N9        30.05F
OZARK CAIRNS   MOSUNNY   81  68  63 N7        30.01
FT RUCKER HELI NOT AVBL
RUCKER HELI 3  NOT AVBL
RUCKER HELI 2  NOT AVBL
FLORALA APT    CLOUDY    81  69  67 N7        30.04F
ANDALUSIA      CLOUDY    86  67  52 N7        30.02F
TROY           CLOUDY    85  66  53 N8        30.04F
EUFALA         FAIR      84  66  54 NE3       30.01F
MOBILE         PTSUNNY   87  67  51 NE10      30.01F HX  90
$$

!GAZ120>161-272200
...Southwest and South Central Georgia...

CITY           SKY/WX    TMP DP  RH WIND       PRES   REMARKS
THOMASVILLE    NOT AVBL
BAINBRIDGE     PTSUNNY   86  72  62 N13       30.00S HX  92
MOODY AFB      MOSUNNY   86  72  62 CALM      29.96S HX  92
VALDOSTA       LGT RAIN  76  73  91 SE3       29.98F FOG
MOULTRIE       PTSUNNY   82  72  69 N5        29.99F
BLAKELY        MOSUNNY   84  68  58 NE3       30.02S
ALBANY         CLOUDY    87  66  49 NE10      30.03R
TIFTON         FAIR      83  68  59 N8        30.01R
FITZGERALD     FAIR      83  70  63 N8        30.03S
CORDELE        FAIR      87  64  46 N5        30.03S
AMERICUS       FAIR      81  61  50 NE7       30.05S
HOMERVILLE     TSTM      82  72  69 N17G24    30.00R
$$

!GMZ750-755-770-775-272200
...Coastal and Buoy Obs...

STATION/POSITION TIME  TEMP    WIND        PRES    VSBY  WAVE
                       AIR SEA DIR/SP/G                  HT/PER
                 (UTC) (F)     (DEG/KT/KT) (MB)    (MI)  (FT/S)
KEATON BEACH     2100   77     360/  9/ 15 1015.1R
CEDAR KEY        2100   86     290/  8/ 12 1015.0F
C TOWER          2100   83     250/  8/  9 1015.7S
APALACHICOLA BUO 2050   84 87  320/  2/  6 1015.0F         1/ 6
PANAMA CITY BUOY 2050   82 85   10/  4/  6 1015.2F         1/ 6
MOBILE BUOY      2100   82 84  350/  6/  8 1015.5
ORANGE BCH AL BU 2050   80 82   50/  2/  2 1015.3F         1/ 5
$$




USA.gov is the U.S. government's official web portal to all federal, state and local government web resources and services.